KUIPER-00512

导读 | 豆包AI

KUIPER-00512(NORAD编号68889)是亚马逊Kuiper(现更名为Leo)低轨卫星互联网星座中的一颗卫星,属于该星座一期组网卫星。该星座原计划部署3232颗卫星,旨在为全球网络覆盖不足地区提供高速低延迟互联网服务。KUIPER-00512运行在近地轨道,服务涵盖家庭、企业及政府用户,支持从消费级网络到企业级带宽密集型应用,是亚马逊推进“卫星+AWS云”一体化太空服务网络的组成部分,助力全球高速互联网覆盖布局。

Basic Information
目录编号:
68889
目录名称:
KUIPER-00512
国际标识:
2026-095AB
轨道中心:
EARTH
卫星名称:
KUIPER-00512
卫星全名:
KUIPER-00512
卫星状态:
在轨 (已飞行27 天)
发射日期:
2026-04-28 UTC
国别 :
美国 (US)
星等 :
--
Orbit Information
数据来源 国际轨道数据
星历时间: 2026-05-24T12:00:02+0800
1天前
查看轨道信息
半长轴: 6860.648km
偏心率: 0.0003673
轨道倾角: 51.885°
近地点辐角 198.565°
升交点赤经 358.720°
平近点角 57.502°
近地点: 479.991km
远地点: 485.031km
周期: 94.256分钟
每日圈数: 15.277598
Detailed Information
使用方式:
暂无
2D Orbit Map
3D Orbit Map
Orbit Altitude Analysis Chart
Orbit Inclination Analysis Chart
Orbit Comprehensive Analysis Chart
View Comprehensive Chart